Reflectivity
-19 -20 -20 -20 -20 -20 -20 -20 -20 -20 -20 -20 -20 -20 -20 -20 -20 -20 -20 -20 -20 -20 -20 -20 -20 -20 -20 -20 -20 -20 -20 -20 -20 -20 -20 -20 -20 -18 2 -18 -20 -20 -20 16
-20 -20 -20 -20 -20 -20 -20 -20 -20 -20 -20 -20 -20 -20 -20 -20 -20 -20 -20 -20 -20 -20 -20 -20 -20 -20 -20 -20 -20 -20 -20 -20 -5 -5 -10 -20 -20 -20 -20 -20 -18 4 -5 21
-20 -20 -20 -20 -20 -20 -20 -20 -20 -20 -20 -20 -20 -20 -20 -20 -20 -20 -20 -20 -20 -20 -20 -20 -20 -20 -20 -20 -20 -20 -20 -20 -20 -20 -20 -20 -20 -20 -20 -20 -20 -20 9 -3
-20 -19 -20 -20 -20 -20 -20 -20 -20 -20 -20 -20 -20 8 -20 -20 -20 -20 -20 -20 -20 -20 -20 -20 -20 -20 -20 -20 -20 -20 -20 -20 -20 -20 -20 -20 -20 -20 -20 -20 -20 -20 -20 -20
-20 -20 -20 -20 -20 -20 -20 -20 -20 -20 -20 -20 -20 -20 -20 -20 -20 -20 -20 -20 -20 -20 -20 -20 -20 -20 -20 -20 -20 -20 -20 -20 -20 -20 -20 -20 -20 -20 -20 -20 -20 -20 -20 -20
-20 -20 -20 -20 -20 -20 -20 -20 -20 -20 -20 -20 -20 -20 16 -20 -7 -20 -20 -20 -20 -20 -20 -20 -20 -20 -20 -20 -20 -20 -20 -20 -20 -20 -20 -20 -20 -20 -20 -20 -20 -20 -20 -20
-20 -20 -20 -20 -20 -20 -20 -20 -20 -20 -20 -17 -20 -20 -20 -20 -20 -20 -20 -20 -20 -20 -20 -20 -20 -20 -20 -20 -20 -20 -20 -20 -20 -20 -20 -20 -10 -12 -20 -17 -7 -20 -20 -17
-20 -20 -20 -20 -20 -20 -20 -20 -20 -20 -2 21 -20 -20 -2 -20 -20 -20 -20 -20 -20 -20 -20 -20 -20 -20 -20 -20 -20 -20 -20 -20 -20 -20 -20 -20 -8 -7 -12 -20 -6 -5 -20 -20
-20 -20 -20 -20 -20 -20 -20 -20 -20 -20 -20 -20 -18 -19 -20 -20 -20 -20 -20 -20 -20 -20 -20 -20 -20 -20 -20 -20 -20 -20 -20 -20 -20 -20 -20 -20 -20 -18 -13 -14 -20 -20 -4 -20
-20 -20 -20 -20 -20 -20 -20 -20 -17 -20 -10 -2 -16 4 9 -20 -20 -20 -20 -20 -20 -20 -20 -20 -20 -20 -20 -20 -20 -20 -20 -20 -20 -13 -12 -12 -20 -20 -20 -20 -2 -11 9 4
-20 -20 -20 -20 -20 -20 -20 -20 -20 9 -20 8 5 21 -20 -20 -20 -20 -20 -20 -20 -20 -20 -20 -20 -20 -20 -20 -20 -20 -20 -20 -20 -3 -20 -1 -3 -4 -20 -6 8 14 16 12
-20 -20 -20 -20 -20 -20 -20 -20 -3 -20 -18 -19 -12 8 -20 -20 -20 -20 -20 -20 -20 -20 -20 -20 -20 -20 -20 -20 -20 -20 -20 -20 -20 -8 1 3 -17 -20 -20 5 8 7 13 12
-20 -20 -20 -20 -13 -20 -20 -20 -20 -20 -10 -20 19 15 -20 -20 -20 -20 -20 -17 -20 -20 -20 -20 -20 -20 -20 -20 -20 -20 -20 -20 -16 6 1 -12 -10 -20 -20 -2 -20 5 15 14
-20 -20 -20 7 -1 2 1 -20 -20 -12 15 -6 10 -17 -20 -20 -20 -20 -20 -20 -20 -20 -20 -20 -20 -20 -20 -20 -20 -20 -20 -20 -20 -20 -20 -20 -20 -20 -20 1 2 7 7 4
-20 7 4 -20 -20 -20 -8 -14 -20 -4 -9 25 -8 -18 -20 -20 -20 -20 -20 -20 -20 -20 -20 -20 -20 -20 -20 -20 -20 -20 -20 -20 -7 -15 -20 -20 -20 -20 -20 -3 -4 1 -4 1
-20 19 6 18 -19 -20 2 21 -19 -20 -20 -20 -9 -20 -20 -20 -20 -20 -20 -20 -20 -20 -20 -20 -20 -20 -20 -20 -20 -20 -20 -20 -20 -20 -20 -20 -20 -20 -20 -20 -20 -2 -13 -20
-20 16 9 18 14 16 -4 -2 -4 5 -19 5 -20 -19 -20 -20 -20 -20 -20 -20 -20 -20 -20 -20 -20 -20 -20 -20 -20 -20 -20 -20 -20 -20 -20 -20 -19 -20 -20 -20 -9 0 6 -11
-20 -3 -20 17 22 21 2 -17 -9 -15 -4 -20 -20 -20 -20 -18 -20 -20 -20 -20 -20 -20 -20 -20 -20 -20 -20 -20 -20 -20 -20 -14 -12 -20 -20 -20 -20 -20 12 -13 -19 -16 -7 14
-20 -20 16 13 4 1 14 -20 6 6 0 -20 -20 -20 -20 -20 10 -10 -20 -20 -20 -20 -20 -20 -20 -20 -20 -20 -20 -20 -20 -20 3 -20 -20 -20 -17 1 5 3 2 6 -1 -7
-20 -20 -8 13 9 19 -10 -20 -20 -20 5 -20 -20 -20 -20 -20 -7 -9 -20 -20 -20 -20 -20 -20 -20 -20 -20 -20 -20 -20 -20 -20 -17 -15 -19 4 -3 4 3 -2 10 11 4 0
-10 -4 8 -10 -2 -3 -19 -20 -20 15 4 -20 -20 -7 -8 -20 -20 -20 -20 -20 -20 -20 -20 -20 -20 -20 -20 -20 -20 -20 -20 -20 -20 -20 0 -6 -17 1 -11 -10 10 7 14 17
-16 2 -17 0 -17 -9 -20 -20 12 -12 -20 -20 -19 -16 -20 -20 -20 -20 -20 -20 -20 -20 -20 -20 -20 -20 -20 -20 -20 -20 -20 -20 -20 -7 0 -0 -17 3 -12 -7 7 4 15 16
-10 -19 3 -20 -18 -20 -20 -20 -20 -20 -20 -1 -14 -20 -2 -20 -20 -20 -20 -20 -20 -20 -20 -20 -8 -3 -20 -20 -20 -20 -20 -20 -20 -16 -2 -8 -18 4 -8 3 4 -1 1 9
-16 -13 -9 -16 -20 -20 -20 -20 -3 -20 -20 -20 -20 -20 -20 -20 -20 -20 -20 -11 -16 -3 -20 -20 -20 -20 -20 -20 -20 -20 -20 -20 -20 -20 6 2 -20 -1 -6 -8 1 -10 -8 -1
-20 -20 -18 -20 -14 -20 -20 -20 -20 -20 -20 -20 -20 -20 -20 -20 -20 -20 -10 -18 -11 -20 -20 -20 0 -8 -11 -3 -9 -20 -20 -20 -20 -20 -7 -4 -15 4 -13 0 2 3 19 15
-20 -20 -20 -20 -20 4 -11 -20 -20 -20 -20 -20 -20 -20 -20 -6 -14 -9 -20 -20 -20 -20 -20 -20 -6 -2 -3 -19 -13 -13 -6 -20 -20 -20 -18 8 -1 -4 -13 -1 -14 28 23 -2
Wind_Speed
12 11 12 13 8 9 10 3 7 9 4 3 7 11 11 9 8 8 5 3 3 2 1 1 1 4 4 6 7 6 7 7 6 8 8 9 9 8 9 11 13 14 7 11
6 13 6 2 3 6 5 4 7 4 4 7 9 9 9 10 4 2 1 4 2 2 4 4 4 4 5 7 7 8 10 10 10 9 10 9 11 12 12 12 13 14 14 15
13 6 3 5 5 6 3 6 10 6 7 9 9 10 10 7 7 5 5 2 3 4 6 5 4 6 7 8 8 9 11 11 11 13 11 10 11 10 12 12 9 9 10 10
7 5 6 6 6 5 9 2 3 7 10 5 13 1 13 13 12 8 5 4 3 6 5 7 9 10 10 8 8 8 10 12 12 12 11 13 12 14 12 12 12 13 14 14
4 8 9 8 2 4 5 5 5 7 10 2 10 8 7 6 10 8 4 2 4 5 8 9 9 8 9 9 10 11 12 12 12 12 12 11 14 12 12 12 16 14 12 13
5 3 3 2 2 4 7 6 5 5 7 8 9 8 7 9 8 6 4 2 4 7 7 9 8 8 9 10 10 10 12 13 14 14 14 11 11 13 12 13 12 11 9 8
7 9 5 7 7 6 9 10 6 6 6 6 7 5 3 9 6 2 3 4 5 7 9 9 10 11 11 11 11 11 13 13 15 15 12 12 12 11 11 11 10 14 11 11
8 9 13 10 12 6 11 12 4 6 7 5 8 4 5 8 5 3 0 2 6 8 9 10 10 10 11 11 11 12 13 13 13 14 15 11 9 7 10 10 10 10 9 9
5 3 4 1 2 8 9 12 10 10 5 6 6 6 3 6 8 2 3 5 7 9 10 11 11 10 10 10 11 11 13 13 13 13 10 9 8 9 10 12 11 8 11 9
1 7 7 6 4 7 10 4 6 7 3 4 6 9 3 8 7 3 2 6 8 10 11 11 10 10 10 10 10 12 15 13 11 13 10 8 9 10 11 11 12 13 13 12
4 5 6 3 10 10 9 10 6 5 2 3 4 5 2 4 3 2 4 6 9 10 11 11 11 10 10 11 11 12 14 12 11 11 11 9 8 10 10 11 12 12 11 9
3 6 9 7 9 5 10 6 8 2 3 2 5 3 1 2 1 2 6 6 8 10 11 10 11 11 11 11 12 14 12 11 10 8 9 12 10 10 11 11 13 13 13 11
3 5 7 9 10 8 8 9 5 9 4 4 2 3 6 4 4 2 6 8 9 10 11 11 11 11 11 11 12 14 12 10 9 9 8 10 10 11 12 12 12 11 11 11
4 6 7 8 6 8 4 2 8 12 5 5 2 8 9 5 2 4 6 8 10 10 11 11 11 11 11 11 12 13 12 10 11 9 10 10 10 11 11 12 12 13 10 12
6 2 1 6 3 4 7 1 4 5 7 3 8 8 6 2 3 6 7 9 10 11 12 12 12 11 12 12 11 11 12 9 9 9 11 10 10 12 11 12 11 13 10 12
5 1 2 6 11 12 12 8 9 7 8 12 14 6 2 2 3 6 9 10 12 12 12 13 13 13 12 13 11 10 10 10 10 11 12 10 10 11 12 11 10 11 9 10
2 2 1 4 9 13 9 6 4 7 10 8 8 3 3 4 9 9 9 11 11 12 12 13 13 12 12 13 10 10 10 11 10 11 12 12 10 11 9 11 12 11 11 10
7 4 4 4 5 2 2 0 3 8 9 11 9 7 9 11 4 7 9 11 11 11 12 12 11 11 12 12 10 11 9 12 11 13 11 13 12 11 11 10 11 10 10 8
6 2 3 1 8 6 2 4 2 2 4 10 5 6 10 11 3 7 10 11 10 10 9 10 10 11 12 12 11 10 11 10 14 13 13 13 11 11 10 12 11 9 8 10
4 3 3 2 4 2 5 6 1 5 4 8 5 8 10 13 5 11 12 9 9 8 9 11 11 11 12 13 13 12 11 10 11 13 13 13 10 11 9 10 10 10 7 9
4 3 4 2 4 3 4 4 3 4 5 4 5 6 6 5 7 8 8 8 9 9 11 12 11 11 12 13 14 15 15 10 9 11 13 12 10 9 9 10 8 9 10 9
1 2 2 3 3 2 7 5 1 6 4 4 5 6 7 7 7 7 8 10 10 12 12 13 12 12 13 14 13 15 16 12 9 10 11 12 11 7 7 10 10 11 11 9
3 1 1 4 3 5 6 2 3 5 4 4 4 8 8 7 8 8 9 10 10 13 13 15 14 13 14 15 15 15 15 15 8 11 11 11 11 9 8 9 9 6 7 8
5 5 3 5 7 7 5 4 5 5 6 6 9 9 8 7 9 9 9 10 13 15 15 14 14 16 16 16 16 16 16 15 10 11 11 12 10 10 8 8 6 5 5 6
0 8 6 8 10 8 8 5 2 3 6 7 9 9 10 9 10 9 12 14 12 12 12 12 13 13 14 15 17 18 16 15 13 9 10 8 9 10 8 8 5 5 4 4
6 7 5 4 10 4 8 6 4 9 9 9 9 8 10 11 11 15 11 10 10 11 11 11 13 13 14 14 15 16 18 15 14 11 8 7 7 7 8 6 7 6 5 8
Wind_Direction
207 232 220 215 218 314 304 274 178 103 32 146 146 155 161 158 168 178 161 112 87 50 127 201 297 285 322 315 319 308 305 301 273 270 278 277 279 259 240 252 254 263 262 264
192 236 60 311 246 257 267 241 121 99 171 256 164 157 155 185 159 129 224 157 70 346 346 3 355 327 297 290 273 280 279 282 290 290 292 297 297 293 295 299 298 296 289 287
243 80 134 213 204 222 219 252 154 278 169 246 190 175 177 169 183 176 194 344 240 3 354 353 343 322 319 319 327 323 319 314 312 315 302 298 297 288 282 280 274 273 286 301
264 126 196 207 229 300 256 153 236 165 198 233 207 102 191 167 195 196 166 231 355 7 350 341 345 350 342 333 337 321 324 317 308 316 302 300 299 294 292 294 290 301 297 300
120 185 204 215 243 251 43 143 192 198 231 271 191 260 108 147 221 162 149 18 16 351 359 355 349 337 316 346 359 340 330 316 319 317 313 306 302 303 309 310 310 303 297 289
85 39 253 349 173 254 135 163 167 216 237 236 228 234 182 181 156 134 117 30 8 9 347 350 348 347 351 347 350 336 326 329 330 324 319 328 321 308 300 304 306 299 301 302
181 186 133 171 143 155 187 181 196 219 200 229 81 234 96 95 104 45 58 1 9 358 7 345 355 351 349 349 348 340 338 330 344 342 331 325 319 328 324 317 317 320 313 312
194 197 182 181 241 211 218 215 226 237 241 176 151 241 94 104 109 121 211 26 360 4 3 356 358 353 350 354 346 342 333 340 341 352 346 347 359 331 327 333 316 306 305 310
317 237 101 265 235 260 197 231 273 285 254 282 140 89 200 185 143 160 48 341 3 358 -0 358 355 3 349 357 347 346 335 344 352 345 329 320 341 330 320 313 312 307 306 289
341 277 174 136 239 225 273 324 214 228 197 242 208 166 143 184 159 101 2 354 354 357 359 358 356 359 350 352 346 351 357 347 348 339 325 320 323 322 322 317 306 295 295 297
291 238 156 168 208 218 188 237 244 91 63 291 246 105 49 113 76 346 350 355 355 359 2 356 354 356 351 350 351 359 357 344 351 339 327 323 322 310 325 310 300 302 300 294
73 295 262 235 71 344 304 266 142 196 183 254 280 128 163 152 99 327 320 5 356 6 5 355 354 352 352 352 351 1 351 356 353 326 321 322 332 331 323 318 320 326 311 316
31 248 271 227 186 193 240 202 233 126 171 213 244 125 158 151 206 277 355 5 357 5 2 359 353 352 350 352 3 357 356 355 341 327 326 321 322 339 333 336 320 325 306 317
290 282 301 318 352 309 219 240 235 213 210 193 182 139 161 161 316 4 15 3 1 5 0 358 352 351 350 354 2 349 355 348 339 335 329 323 346 340 347 331 333 330 330 325
290 354 323 293 324 7 49 359 238 179 247 165 156 114 87 60 330 22 22 359 357 2 357 356 354 350 349 350 2 350 348 348 341 329 314 335 345 347 345 333 336 325 332 312
15 170 117 70 97 101 88 61 98 108 120 125 97 65 3 24 15 36 13 1 358 358 355 353 351 350 350 349 13 348 342 344 329 329 325 333 346 354 334 340 326 324 325 310
31 142 180 132 156 142 78 355 47 81 56 101 91 187 326 16 14 45 5 3 356 356 354 352 347 349 348 353 26 355 337 331 331 326 333 334 342 344 329 330 332 327 319 314
76 102 129 135 226 73 109 38 88 75 54 58 67 33 3 351 347 60 18 7 359 355 351 347 347 349 352 354 16 0 343 336 324 328 347 337 348 339 335 330 330 333 316 328
19 80 57 97 67 122 140 178 50 43 87 80 43 23 359 319 45 74 24 21 358 352 347 344 350 352 354 355 358 356 4 337 329 338 339 336 338 337 346 335 326 326 326 320
106 355 132 342 99 104 144 108 0 305 152 59 359 11 340 335 348 29 10 13 353 351 356 351 353 356 359 355 349 346 3 10 334 330 327 326 350 346 345 330 324 326 324 315
78 98 90 108 90 144 185 115 264 274 68 73 344 337 333 41 18 353 358 4 3 -0 7 352 1 3 4 356 355 353 357 17 353 330 327 328 354 343 346 331 334 325 325 335
282 297 114 261 113 174 164 182 324 51 102 353 12 339 28 20 12 5 11 8 8 4 7 3 1 3 8 358 358 357 1 22 15 349 338 338 348 339 350 338 350 346 342 349
187 323 132 355 53 100 119 142 98 39 357 24 349 24 16 24 16 17 13 13 6 12 9 5 0 2 10 1 1 357 359 360 25 5 346 345 338 353 359 347 353 347 352 353
159 157 179 169 138 146 144 129 64 1 344 14 33 31 29 28 19 16 17 11 14 18 12 358 358 9 3 357 359 357 352 353 41 21 353 343 344 345 3 3 358 9 358 355
303 173 166 127 141 128 109 42 359 132 77 55 51 36 24 18 31 6 32 23 10 9 7 10 11 4 0 355 358 354 345 356 8 27 3 350 344 343 348 2 358 16 12 5
190 190 182 124 108 73 89 91 60 68 51 37 34 52 46 22 27 32 30 25 16 16 15 13 12 7 359 356 355 351 340 351 3 22 15 356 345 345 345 360 352 20 15 34